Starlink 30193

operational
NORAD ID: 57414 Int'l Des: 2023-102 Owner: SPXS Country: US Constellation: starlink
LEOCIRCULAR

Über Starlink 30193

Beschreibung wird geladen...

Live-Position

3D-Globus wird geladen...

Nächste Überflüge

Höhenverlauf

Altitude vs Time

uPlot chart will show altitude changes over time

Zweizeiliger Elementsatz

1 57414U 23102L 25354.21612475 .00000657 00000-0 63718-4 0 9993
2 57414 43.0069 320.5141 0000999 276.1624 83.9105 15.02532510134284
Epoch: 20. Dez. 2025 • Age: 13 hours

Aktueller Status

Höhe 562.5 km
Geschwindigkeit 7.59 km/s
Subsatellitenpunkt 41.10°N, 63.14°E
Startdatum 19. Juli 2023
Alter 2.4 years
Typ internet

Technische Details

Klassifizierung Payload
Masse 730.00 kg
Trockenmasse 700.00 kg
Gesamtmasse 730.00 kg
Länge 0.30 m
Durchmesser 4.10 m
Spannweite 29.00 m
Form Box + pan
Hersteller SPXS
Bus-Typ Starlink V2M
Phasenstatus In Orbit
Besitzer/Staat SPXS/US

Große Konstellationen

Loading constellations...